W0KHZ Weather Reports


Display with metric or nautical units.
time (UTC)temp
F
wind
direction
speed
MPH
gust
MPH
rain 1hr
in
rain 24hr
in
rain mn
in
humidity
%
barometer
mb
20260902025525 71 0.0 0.0 0.00 0.07 0.07 90 1041.8
20260902025023 71 0.0 0.0 0.00 0.07 0.07 90 1041.7
20260902024520 71 0.0 0.0 0.00 0.07 0.07 90 1041.7
20260902024017 71 0.0 0.0 0.00 0.07 0.07 90 1041.8
20260902023534 71 0.0 0.0 0.00 0.07 0.07 90 1041.8
20260902023051 71 0.0 0.0 0.00 0.07 0.07 90 1041.8
20260902022527 71 0.0 0.0 0.00 0.07 0.07 90 1041.9
20260902022044 71 0.0 0.0 0.00 0.07 0.07 90 1041.9
20260902021542 71 0.0 0.0 0.00 0.07 0.07 90 1041.9
20260902021019 71 0.0 0.0 0.00 0.07 0.07 90 1041.9
20260902020516 71 0.0 0.0 0.02 0.07 0.07 90 1041.7
20260902020033 71 0.0 0.0 0.02 0.07 0.07 90 1041.8
20260902015529 72 0.0 0.0 0.02 0.07 0.07 90 1041.7
20260902015027 72 0.0 0.0 0.02 0.07 0.07 90 1041.7
20260902014524 72 0.0 0.0 0.02 0.07 0.07 90 1041.8
20260902014041 72 0.0 0.0 0.02 0.07 0.07 90 1041.8
20260902013518 72 0.0 0.0 0.02 0.07 0.07 89 1041.7
20260902013015 72 0.0 0.0 0.02 0.07 0.07 89 1041.6
20260902012532 72 0.0 0.0 0.02 0.07 0.07 89 1041.6
20260902012028 72 0.0 0.0 0.02 0.07 0.07 89 1041.5
20260902011526 72 0.0 0.0 0.02 0.07 0.07 89 1041.4
20260902011023 72 0.0 0.0 0.02 0.07 0.07 89 1041.4
20260902010520 72 0.0 0.0 0.01 0.06 0.06 89 1041.4
20260902010017 72 0.0 0.0 0.01 0.06 0.06 88 1041.4
20260902005554 72 0.0 0.0 0.01 0.06 0.06 88 1041.4
20260902005031 72 0.0 0.0 0.01 0.06 0.06 88 1041.2
20260902004528 72 0.0 0.0 0.01 0.06 0.06 88 1041.2
20260902004025 73 0.0 0.0 0.01 0.06 0.06 88 1041.3
20260902003523 73 0.0 0.0 0.01 0.06 0.06 87 1041.2
20260902003020 73 293 0.0 1.0 0.02 0.06 0.06 87 1041.1
20260902002517 73 0.0 0.0 0.01 0.05 0.05 87 1041.0
20260902002055 73 0.0 0.0 0.01 0.05 0.05 87 1041.0
20260902001551 73 273 0.0 1.0 0.01 0.05 0.05 86 1041.1
20260902001028 73 0.0 0.0 0.04 0.05 0.05 86 1041.0
20260902000545 74 58 0.0 2.0 0.04 0.05 0.05 85 1040.9
20260902000022 74 0.0 0.0 0.04 0.05 0.05 85 1040.8
20260901235539 74 0.0 0.0 0.04 0.05 0.05 84 1041.1
20260901235016 74 0.0 0.0 0.04 0.04 0.04 85 1041.3
20260901234531 75 0.0 0.0 0.04 0.04 0.04 84 1040.9
20260901234028 75 0.0 0.0 0.04 0.04 0.04 84 1041.0
20260901233545 76 323 0.0 1.0 0.04 0.04 0.04 83 1040.6
20260901233023 76 0.0 0.0 0.04 0.04 0.04 81 1040.5
20260901232520 77 0.0 0.0 0.04 0.04 0.04 80 1040.5
20260901232017 78 0.0 0.0 0.04 0.04 0.04 79 1040.8
20260901231535 78 285 0.0 1.0 0.03 0.04 0.04 78 1041.1
20260901231030 79 0.0 0.0 0.00 0.00 0.00 77 1041.8
20260901230527 79 0.0 0.0 0.00 0.00 0.00 76 1041.9
20260901230024 79 0.0 0.0 0.00 0.00 0.00 75 1042.0
20260901225521 79 0.0 0.0 0.00 0.00 0.00 75 1042.1
20260901225019 79 0.0 0.0 0.00 0.00 0.00 76 1042.3
20260901224516 80 0.0 0.0 0.00 0.00 0.00 76 1042.3
20260901224133 80 0.0 0.0 0.00 0.00 0.00 75 1042.0
20260901223529 81 0.0 0.0 0.00 0.00 0.00 74 1041.8
20260901223027 81 0.0 0.0 0.00 0.00 0.00 74 1041.3
20260901222523 81 0.0 0.0 0.00 0.00 0.00 73 1040.9
20260901222041 82 0.0 0.0 0.00 0.00 0.00 71 1041.0
20260901221518 83 0.0 0.0 0.00 0.00 0.00 69 1040.5
20260901221035 83 0.0 0.0 0.00 0.00 0.00 69 1040.6
20260901220532 83 0.0 0.0 0.00 0.00 0.00 70 1041.3
20260901220028 84 0.0 0.0 0.00 0.00 0.00 69 1041.6
20260901215526 84 0.0 0.0 0.00 0.00 0.00 69 1041.5
20260901215022 85 0.0 0.0 0.00 0.00 0.00 69 1041.2
20260901214520 85 0.0 0.0 0.00 0.00 0.00 66 1040.9
20260901214017 86 0.0 0.0 0.00 0.00 0.00 65 1040.7
20260901213533 87 0.0 0.0 0.00 0.00 0.00 63 1040.7
20260901213030 87 0.0 0.0 0.00 0.00 0.00 63 1041.0
20260901212526 88 0.0 0.0 0.00 0.00 0.00 63 1040.9
20260901212024 89 0.0 0.0 0.00 0.00 0.00 60 1041.0
20260901211521 89 0.0 0.0 0.00 0.00 0.00 58 1041.2
20260901211019 89 0.0 0.0 0.00 0.00 0.00 59 1041.2
20260901210516 89 0.0 0.0 0.00 0.00 0.00 59 1041.3
20260901210033 89 0.0 0.0 0.00 0.00 0.00 60 1041.3
20260901205550 88 0.0 0.0 0.00 0.00 0.00 60 1041.6
20260901205026 88 0.0 0.0 0.00 0.00 0.00 61 1041.5
20260901204523 88 0.0 0.0 0.00 0.00 0.00 64 1041.7
20260901204021 87 0.0 0.0 0.00 0.00 0.00 65 1041.7
20260901203518 87 0.0 0.0 0.00 0.00 0.00 67 1041.5
20260901203035 86 0.0 0.0 0.00 0.00 0.00 68 1041.4
20260901202531 85 0.0 0.0 0.00 0.00 0.00 70 1041.4
20260901202029 85 0.0 0.0 0.00 0.00 0.00 69 1041.6
20260901201525 85 0.0 0.0 0.00 0.00 0.00 68 1041.5
20260901201103 85 0.0 0.0 0.00 0.00 0.00 67 1041.5
20260901200520 85 0.0 0.0 0.00 0.00 0.00 67 1041.6
20260901200017 85 0.0 0.0 0.00 0.00 0.00 67 1041.9
20260901195534 86 0.0 0.0 0.00 0.00 0.00 67 1041.9
20260901195049 86 0.0 0.0 0.00 0.00 0.00 67 1042.1
20260901194526 87 0.0 0.0 0.00 0.00 0.00 67 1042.1
20260901194024 87 0.0 0.0 0.00 0.00 0.00 67 1042.2
20260901193520 88 13 0.0 1.0 0.00 0.00 0.00 67 1042.2
20260901193017 88 0.0 0.0 0.00 0.00 0.00 66 1042.3
20260901192535 88 0.0 0.0 0.00 0.00 0.00 65 1042.3
20260901192030 88 0.0 0.0 0.00 0.00 0.00 65 1042.2
20260901191528 88 0.0 0.0 0.00 0.00 0.00 64 1042.3
20260901191045 89 0.0 0.0 0.00 0.00 0.00 65 1042.2
20260901190543 88 0.0 0.0 0.00 0.00 0.00 65 1042.2
20260901190020 88 0.0 0.0 0.00 0.00 0.00 65 1042.3
20260901185517 88 0.0 0.0 0.00 0.00 0.00 65 1042.3
20260901185034 88 0.0 0.0 0.00 0.00 0.00 65 1042.3
20260901184530 88 0.0 0.0 0.00 0.00 0.00 67 1042.3
20260901184027 87 0.0 0.0 0.00 0.00 0.00 65 1042.4
20260901183524 88 232 0.0 1.0 0.00 0.00 0.00 65 1042.3
20260901183021 88 0.0 0.0 0.00 0.00 0.00 64 1042.2
20260901182517 88 0.0 0.0 0.00 0.00 0.00 64 1042.2
20260901182035 89 0.0 0.0 0.00 0.00 0.00 63 1042.4
20260901181531 89 0.0 0.0 0.00 0.00 0.00 64 1042.2
20260901181028 89 0.0 0.0 0.00 0.00 0.00 64 1042.3
20260901180526 89 199 0.0 2.0 0.00 0.00 0.00 66 1042.2
20260901180022 89 129 0.0 2.0 0.00 0.00 0.00 67 1042.3
20260901175520 88 114 0.0 2.0 0.00 0.00 0.00 66 1042.3
20260901175018 88 0.0 0.0 0.00 0.00 0.00 67 1042.4
20260901174535 88 274 0.0 1.0 0.00 0.00 0.00 67 1042.4
20260901174030 88 187 0.0 1.0 0.00 0.00 0.00 67 1042.5
20260901173547 87 265 0.0 2.0 0.00 0.00 0.00 67 1042.5
20260901173024 87 0.0 0.0 0.00 0.00 0.00 69 1042.4
20260901172522 87 135 0.0 1.0 0.00 0.00 0.00 69 1042.5
20260901172019 87 135 0.0 1.0 0.00 0.00 0.00 70 1042.6
20260901171517 86 135 0.0 2.0 0.00 0.00 0.00 73 1042.6
20260901171034 86 135 0.0 1.0 0.00 0.00 0.00 74 1042.7
20260901170529 86 135 0.0 1.0 0.00 0.00 0.00 77 1042.8
20260901170026 85 145 0.0 2.0 0.00 0.00 0.00 78 1042.8
20260901165543 85 170 0.0 1.0 0.00 0.00 0.00 79 1042.7
20260901165021 85 170 0.0 1.0 0.00 0.00 0.00 79 1042.7
20260901164538 84 0.0 0.0 0.00 0.00 0.00 79 1042.7
20260901164035 84 170 0.0 2.0 0.00 0.00 0.00 80 1042.8
20260901163530 84 177 0.0 2.0 0.00 0.00 0.00 81 1042.8
20260901163027 83 130 0.0 1.0 0.00 0.00 0.00 83 1042.9
20260901162524 83 129 0.0 1.0 0.00 0.00 0.00 83 1042.8
20260901162021 82 141 0.0 1.0 0.00 0.00 0.00 84 1042.7
20260901161519 82 0.0 0.0 0.00 0.00 0.00 84 1042.8
20260901161017 81 236 0.0 1.0 0.00 0.00 0.00 85 1042.8
20260901160532 81 261 0.0 2.0 0.00 0.00 0.00 86 1042.8
20260901160028 81 256 0.0 1.0 0.00 0.00 0.00 88 1042.9
20260901155545 80 165 0.0 1.0 0.00 0.00 0.00 90 1042.8
20260901155022 80 149 0.0 2.0 0.00 0.00 0.00 91 1042.7
20260901154519 80 153 0.0 2.0 0.00 0.00 0.00 92 1042.9
20260901154016 79 0.0 0.0 0.00 0.00 0.00 93 1043.0
20260901153534 79 0.0 0.0 0.00 0.00 0.00 93 1042.9
20260901153029 78 0.0 0.0 0.00 0.00 0.00 93 1043.1
20260901152526 77 0.0 0.0 0.00 0.00 0.00 93 1043.0
20260901152023 77 0.0 0.0 0.00 0.00 0.00 93 1042.9
20260901151521 77 0.0 0.0 0.00 0.00 0.00 93 1042.9
20260901151018 76 0.0 0.0 0.00 0.00 0.00 93 1042.9
20260901150515 76 0.0 0.0 0.00 0.00 0.00 93 1042.9
20260901150031 75 0.0 0.0 0.00 0.00 0.00 93 1042.8
20260901145548 75 0.0 0.0 0.00 0.00 0.00 93 1042.8
20260901145025 74 0.0 0.0 0.00 0.00 0.00 93 1042.8
20260901144522 74 0.0 0.0 0.00 0.00 0.00 93 1042.9
20260901144019 73 0.0 0.0 0.00 0.00 0.00 93 1043.0
20260901143516 73 0.0 0.0 0.00 0.00 0.00 93 1043.0
20260901143053 72 0.0 0.0 0.00 0.00 0.00 93 1043.0
20260901142529 72 0.0 0.0 0.00 0.00 0.00 93 1042.9
20260901142026 72 0.0 0.0 0.00 0.00 0.00 93 1042.9
20260901141524 72 0.0 0.0 0.00 0.00 0.00 93 1043.0
20260901141020 72 0.0 0.0 0.00 0.00 0.00 93 1043.0
20260901140518 71 0.0 0.0 0.00 0.00 0.00 93 1043.0
20260901140035 71 0.0 0.0 0.00 0.00 0.00 93 1043.0
20260901135531 71 0.0 0.0 0.00 0.00 0.00 93 1043.1
20260901135027 71 0.0 0.0 0.00 0.00 0.00 93 1043.1
20260901134605 71 0.0 0.0 0.00 0.00 0.00 93 1043.0
20260901134021 71 0.0 0.0 0.00 0.00 0.00 93 1043.1
20260901133559 71 0.0 0.0 0.00 0.00 0.00 93 1043.1
20260901133035 71 0.0 0.0 0.00 0.00 0.00 93 1043.2
20260901132531 71 0.0 0.0 0.00 0.00 0.00 93 1043.2
20260901132027 71 0.0 0.0 0.00 0.00 0.00 93 1043.2
20260901131525 71 0.0 0.0 0.00 0.00 0.00 93 1043.1
20260901131022 71 0.0 0.0 0.00 0.00 0.00 93 1043.2
20260901130539 71 0.0 0.0 0.00 0.00 0.00 93 1043.1
20260901130015 70 0.0 0.0 0.00 0.00 0.00 93 1043.0
20260901125531 70 0.0 0.0 0.00 0.00 0.00 93 1043.0
20260901125028 70 0.0 0.0 0.00 0.00 0.00 93 1042.9
20260901124525 70 0.0 0.0 0.00 0.00 0.00 93 1043.0
20260901124022 70 0.0 0.0 0.00 0.00 0.00 93 1043.1
20260901123519 70 0.0 0.0 0.00 0.00 0.00 93 1042.8
20260901123016 70 0.0 0.0 0.00 0.00 0.00 93 1043.0
20260901122533 70 0.0 0.0 0.00 0.00 0.00 93 1042.9
20260901122029 70 0.0 0.0 0.00 0.00 0.00 93 1042.9
20260901121527 70 0.0 0.0 0.00 0.00 0.00 93 1042.8
20260901121024 70 0.0 0.0 0.00 0.00 0.00 93 1042.7
20260901120521 70 0.0 0.0 0.00 0.00 0.00 93 1042.6
20260901120019 70 0.0 0.0 0.00 0.00 0.00 93 1042.6
20260901115535 70 0.0 0.0 0.00 0.00 0.00 93 1042.5
20260901115032 70 0.0 0.0 0.00 0.00 0.00 93 1042.5
20260901114529 70 0.0 0.0 0.00 0.00 0.00 93 1042.4
20260901114026 70 0.0 0.0 0.00 0.00 0.00 93 1042.4
20260901113523 71 0.0 0.0 0.00 0.00 0.00 93 1042.3
20260901113100 71 0.0 0.0 0.00 0.00 0.00 93 1042.3
20260901112537 71 0.0 0.0 0.00 0.00 0.00 93 1042.2
20260901112035 71 0.0 0.0 0.00 0.00 0.00 93 1042.3
20260901111531 71 0.0 0.0 0.00 0.00 0.00 93 1042.3
20260901111048 71 0.0 0.0 0.00 0.00 0.00 93 1042.3
20260901110525 71 0.0 0.0 0.00 0.00 0.00 93 1042.3
20260901110022 71 0.0 0.0 0.00 0.00 0.00 93 1042.2
20260901105539 71 0.0 0.0 0.00 0.00 0.00 93 1042.2
20260901105016 71 0.0 0.0 0.00 0.00 0.00 93 1042.1
20260901104533 71 0.0 0.0 0.00 0.00 0.00 93 1042.2
20260901104029 71 0.0 0.0 0.00 0.00 0.00 93 1042.1
20260901103546 71 0.0 0.0 0.00 0.00 0.00 93 1042.2
20260901103024 71 0.0 0.0 0.00 0.00 0.00 93 1042.2
20260901102521 71 0.0 0.0 0.00 0.00 0.00 93 1042.2
20260901102038 71 0.0 0.0 0.00 0.00 0.00 93 1042.0
20260901101516 71 0.0 0.0 0.00 0.00 0.00 93 1041.8
20260901101033 71 0.0 0.0 0.00 0.00 0.00 93 1041.9
20260901100529 71 0.0 0.0 0.00 0.00 0.00 93 1041.8
20260901100026 71 0.0 0.0 0.00 0.00 0.00 93 1041.9
20260901095523 71 0.0 0.0 0.00 0.00 0.00 93 1041.9
20260901095020 71 0.0 0.0 0.00 0.00 0.00 92 1041.8
20260901094517 71 0.0 0.0 0.00 0.00 0.00 92 1041.9
20260901094034 71 0.0 0.0 0.00 0.00 0.00 93 1041.9
20260901093550 71 0.0 0.0 0.00 0.00 0.00 92 1041.8
20260901093027 71 0.0 0.0 0.00 0.00 0.00 92 1041.9
20260901092524 71 0.0 0.0 0.00 0.00 0.00 92 1041.9
20260901092022 71 0.0 0.0 0.00 0.00 0.00 92 1041.8
20260901091539 72 0.0 0.0 0.00 0.00 0.00 92 1041.7
20260901091016 72 0.0 0.0 0.00 0.00 0.00 92 1041.7
20260901090553 71 0.0 0.0 0.00 0.00 0.00 92 1041.9
20260901090049 71 0.0 0.0 0.00 0.00 0.00 92 1041.9
20260901085526 71 0.0 0.0 0.00 0.00 0.00 92 1041.7
20260901085023 71 0.0 0.0 0.00 0.00 0.00 92 1041.7
20260901084520 72 0.0 0.0 0.00 0.00 0.00 92 1041.5
20260901084058 72 0.0 0.0 0.00 0.00 0.00 92 1041.5
20260901083535 71 0.0 0.0 0.00 0.00 0.00 92 1041.5
20260901083030 71 0.0 0.0 0.00 0.00 0.00 92 1041.5
20260901082527 71 0.0 0.0 0.00 0.00 0.00 92 1041.6
20260901082024 71 0.0 0.0 0.00 0.00 0.00 92 1041.7
20260901081521 71 0.0 0.0 0.00 0.00 0.00 92 1041.6
20260901081018 71 0.0 0.0 0.00 0.00 0.00 92 1041.6
20260901080516 71 0.0 0.0 0.00 0.00 0.00 92 1041.6
20260901080032 72 0.0 0.0 0.00 0.00 0.00 92 1041.7
20260901075528 72 0.0 0.0 0.00 0.00 0.00 92 1041.8
20260901075025 72 0.0 0.0 0.00 0.00 0.00 92 1041.7
20260901074523 72 0.0 0.0 0.00 0.00 0.00 92 1041.7
20260901074020 72 0.0 0.0 0.00 0.00 0.00 92 1041.7
20260901073557 72 0.0 0.0 0.00 0.00 0.00 92 1041.7
20260901073034 72 0.0 0.0 0.00 0.00 0.00 92 1041.7
20260901072530 72 0.0 0.0 0.00 0.00 0.00 92 1041.9
20260901072027 72 0.0 0.0 0.00 0.00 0.00 92 1041.8
20260901071524 72 0.0 0.0 0.00 0.00 0.00 92 1041.8
20260901071021 72 0.0 0.0 0.00 0.00 0.00 92 1041.9
20260901070518 72 0.0 0.0 0.00 0.00 0.00 92 1041.8
20260901070016 72 0.0 0.0 0.00 0.00 0.00 92 1041.8
20260901065533 72 0.0 0.0 0.00 0.00 0.00 92 1041.8
20260901065049 73 0.0 0.0 0.00 0.00 0.00 92 1041.9
20260901064526 73 0.0 0.0 0.00 0.00 0.00 92 1041.8
20260901064023 73 0.0 0.0 0.00 0.00 0.00 91 1041.7
20260901063540 73 0.0 0.0 0.00 0.00 0.00 91 1041.7
20260901063037 73 0.0 0.0 0.00 0.00 0.00 91 1041.8
20260901062555 73 0.0 0.0 0.00 0.00 0.00 91 1041.8
20260901062032 73 0.0 0.0 0.00 0.00 0.00 91 1041.7
20260901061528 73 0.0 0.0 0.00 0.00 0.00 91 1041.7
20260901061026 73 0.0 0.0 0.00 0.00 0.00 91 1041.7
20260901060523 73 0.0 0.0 0.00 0.00 0.00 91 1041.6
20260901060020 73 0.0 0.0 0.00 0.00 0.00 91 1041.6
20260901055517 73 0.0 0.0 0.00 0.00 0.00 91 1041.6
20260901055034 73 0.0 0.0 0.00 0.00 0.00 91 1041.5
20260901054530 73 0.0 0.0 0.00 0.00 0.00 91 1041.4
20260901054027 73 0.0 0.0 0.00 0.00 0.00 91 1041.4
20260901053524 73 0.0 0.0 0.00 0.00 0.00 91 1041.4
20260901053021 73 0.0 0.0 0.00 0.00 0.00 91 1041.3
20260901052519 73 0.0 0.0 0.00 0.00 0.00 91 1041.2
20260901052036 73 0.0 0.0 0.00 0.00 0.00 91 1041.2
20260901051534 73 0.0 0.0 0.00 0.00 0.00 91 1041.3
20260901051029 73 0.0 0.0 0.00 0.00 0.00 91 1041.3
20260901050527 73 0.0 0.0 0.00 0.00 0.00 91 1041.2
20260901050024 73 0.0 0.0 0.00 0.00 0.00 90 1041.3
20260901045541 73 0.0 0.0 0.00 0.00 0.00 90 1041.3
20260901045018 73 0.0 0.0 0.00 0.00 0.00 90 1041.4
20260901044535 73 0.0 0.0 0.00 0.00 0.00 90 1041.3
20260901044032 73 0.0 0.0 0.00 0.00 0.00 90 1041.3
20260901043528 73 0.0 0.0 0.00 0.00 0.00 90 1041.3
20260901043024 73 0.0 0.0 0.00 0.00 0.00 90 1041.3
20260901042521 73 0.0 0.0 0.00 0.00 0.00 90 1041.1
20260901042018 74 0.0 0.0 0.00 0.00 0.00 90 1041.1
20260901041515 74 0.0 0.0 0.00 0.00 0.00 90 1041.1
20260901041032 74 0.0 0.0 0.00 0.00 0.00 90 1041.1
20260901040528 74 0.0 0.0 0.00 0.00 0.00 90 1041.0
20260901040025 74 0.0 0.0 0.00 0.00 0.00 90 1041.0
20260901035522 74 0.0 0.0 0.00 0.00 0.00 89 1041.0
20260901035019 74 0.0 0.0 0.00 0.00 0.00 89 1040.9
20260901034516 74 0.0 0.0 0.00 0.00 0.00 89 1040.9
20260901034033 74 0.0 0.0 0.00 0.00 0.00 89 1040.9
20260901033529 75 0.0 0.0 0.00 0.00 0.00 89 1040.9
20260901033027 75 0.0 0.0 0.00 0.00 0.00 89 1041.0
20260901032523 75 0.0 0.0 0.00 0.00 0.00 89 1040.9
20260901032021 75 0.0 0.0 0.00 0.00 0.00 89 1040.8
20260901031518 75 0.0 0.0 0.00 0.00 0.00 88 1040.8
20260901031035 75 0.0 0.0 0.00 0.00 0.00 88 1040.9
20260901030533 75 0.0 0.0 0.00 0.00 0.00 88 1041.0
20260901030028 75 0.0 0.0 0.00 0.00 0.00 89 1041.1